Regional Weather Roundup
Issued by NWS Sterling, VA

Home | Current Version | Previous Version | Text Only | Print | Product List | Glossary On
Versions: 1 2 3 4 5 6 7 8 9 10 11 12 13 14 15 16 17 18 19 20 21 22 23 24 25 26 27 28 29 30 31 32 33 34 35 36 37 38 39 40 41 42 43 44 45 46 47 48 49 50
000
ASUS41 KLWX 290310
RWRLWX

REGIONAL WEATHER ROUNDUP
NATIONAL WEATHER SERVICE BALTIMORE MD/WASHINGTON DC
1100 PM EDT TUE JUL 28 2015

Note: "FAIR" indicates few or no clouds below 12,000 feet
with no significant weather and/or obstructions to visibility.
 TC=TEMPERATURE CELSIUS

 * =Non NWS site. Station does not report precipitation (e.g. rain,
    snow, etc.), thunder, or fog.

DCZ001-MDZ009-015-VAZ040>042-051-053>054-290400-
WASHINGTON METRO

CITY           SKY/WX    TMP DP  RH WIND       PRES   REMARKS
WASHINGTON NAT PTCLDY    81  74  79 SW3       30.01R
DULLES         PTCLDY    73  71  93 CALM      30.02R
ANDREWS AFB    CLEAR     75  72  92 S2        30.01R
FT BELVOIR     FOG       73  73 100 CALM      30.01R VSB 1/2
QUANTICO       CLEAR     78  71  79 W3        30.01S
COLLEGE PARK*  CLEAR     75  73  94 CALM      30.00R
LEESBURG*      CLEAR     77  73  88 S8        30.02S
MANASSAS*      PTCLDY    73  73 100 CALM      30.01
GAITHERSBURG*  CLEAR     75  70  83 CALM      30.05S

$$

MDZ006>007-011-014-290400-
BALTIMORE METRO

CITY           SKY/WX    TMP DP  RH WIND       PRES   REMARKS
BWI AIRPORT    PTCLDY    77  71  82 CALM      30.00R
MD SCIENCE CTR   N/A     82  70  66 MISG      30.00R
MARTIN STATE   CLEAR     81  75  83 S3        30.01S
ANNAPOLIS      CLEAR     78  71  79 S5        30.01R
FORT MEADE*    CLEAR     72  70  94 CALM      30.03S

$$

MDZ012-015-019>023-290400-
MARYLAND EASTERN SHORE

CITY           SKY/WX    TMP DP  RH WIND       PRES   REMARKS
OCEAN CITY     FAIR      72  69  90 CALM      30.02R
SALISBURY      CLEAR     73  72  96 E3        30.01R
BAY BRIDGE AP*   N/A     79  72  78 S3        30.01S
CAMBRIDGE*     CLEAR     77  72  83 CALM      30.01R
EASTON*        CLEAR     81  75  83 CALM      30.05R

$$

MDZ017>025-290400-
SOUTHERN MARYLAND

CITY           SKY/WX    TMP DP  RH WIND       PRES   REMARKS
PATUXENT RIVER PTCLDY    74  72  93 CALM      30.00F
ST INIGOES     PTCLDY    75  73  93 CALM      29.99F
LEONARDTOWN*   PTCLDY    73  70  88 CALM      30.02F

$$

MDZ003>005-290400-
NORTH CENTRAL MARYLAND

CITY           SKY/WX    TMP DP  RH WIND       PRES   REMARKS
FREDERICK*     CLEAR     73  72  94 S5        30.03S
HAGERSTOWN APT CLEAR     79  70  74 S6        30.01R
WESTMINSTER*   CLEAR     77  73  88 CALM      30.03S

$$

MDZ501>502-290400-
WESTERN MARYLAND

CITY           SKY/WX    TMP DP  RH WIND       PRES   REMARKS
OAKLAND*       CLEAR     68 N/A N/A SE7       30.13R
CUMBERLAND*    MOCLDY    75  72  88 S7        30.07R

$$

VAZ025>031-290400-
SHENANDOAH VALLEY

CITY           SKY/WX    TMP DP  RH WIND       PRES   REMARKS
WINCHESTER*    PTCLDY    75  72  88 W3        30.01F
FRONT ROYAL*   FAIR      73  72  94 CALM      30.02R
LURAY*         FAIR      77  72  83 S6        30.03S
NEW MARKET*    FAIR      72  71  96 CALM      30.02F
STAUNTON*      CLOUDY    76  73  91 CALM      30.07S
WAYNESBORO*    FAIR      72  71  99 CALM      30.07R

$$

WVZ021-048>050-054>055-290400-
EASTERN WEST VIRGINIA PANHANDLE

CITY           SKY/WX    TMP DP  RH WIND       PRES   REMARKS
MARTINSBURG    PTCLDY    74  70  87 CALM      30.01F
PETERSBURG*    CLOUDY   N/A N/A N/A CALM      30.05S

$$

VAZ036>039-050-290400-
CENTRAL FOOTHILLS

CITY           SKY/WX    TMP DP  RH WIND       PRES   REMARKS
CHARLOTTESVILL CLOUDY    73  71  93 CALM      30.03S
CULPEPER*      MOCLDY    72  71  99 CALM      30.02F FOG
ORANGE*        MOCLDY    73  73 100 CALM      30.04R FOG
GORDONSVILLE*  MOCLDY    72  72 100 CALM      30.02S FOG
WARRENTON*     FAIR      73  72  99 NW3       30.01F FOG

$$

VAZ055>057-290400-
NORTH AND CENTRAL PIEDMONT

CITY           SKY/WX    TMP DP  RH WIND       PRES   REMARKS
FREDERICKSBRG* MOCLDY    76  76 100 CALM      30.00S FOG
STAFFORD*      PTCLDY    72  70  95 CALM      30.05S FOG

$$

NCZ024-NYZ072-PAZ021-071-VAZ022-071-290400-
OTHER REGIONAL OBSERVATIONS

CITY           SKY/WX    TMP DP  RH WIND       PRES   REMARKS
NEW YORK CITY  CLEAR     83  69  62 VRB5      30.00S
PHILADELPHIA   PTCLDY    81  72  74 SW3       29.99F
PITTSBURGH     MOCLDY    79  62  56 E7        30.01R
ROANOKE        TSTM      76  72  87 N8        30.07R
RICHMOND       MOCLDY    78  74  87 CALM      30.01S
RALEIGH        LGT RAIN  77  74  90 CALM      30.00R

$$

ANZ530>537-290400-
MARINE OBSERVATIONS

STATION/POSITION TIME  TEMP    WIND        PRES
                       AIR SEA DIR/SP/G
                 (UTC) (F)     (DEG/KT/KT) (MB)
THOMAS PT LIGHT  NOT AVBL
BALT KEY BRIDGE  0200   81     210/  6/  7 1015.2R
COVE POINT       0200   79     210/  5/  5 1016.7R
LEWISETTA        0200   79 83  170/  6/  6 1015.8R
SOLOMONS ISLAND  0200      84                N/A

$$



USA.gov is the U.S. government's official web portal to all federal, state and local government web resources and services.